When you browse on this site, cookies collect data to enhance your experience and personalize the content and advertising you see.
Visit our Privacy Policy to learn more. By continuing to use the site, you agree to this use of cookies and data.
  • en France
  • Liste des pays
  • À 7 jours
  • Température de l'eau
  • Carte météo
  • Widgets météo
  • user-avatar
    Se connecter

    Météo par heure à Kolonia

    Ce jour, 30 Mars, Lundi

    Heure Température Précipitation Vent Pression Humidité
    00:00 -3°C° 0.1 mm 6 m/s 746 mmHg 83%
    01:00 -4°C° 0 mm 5 m/s 747 mmHg 76%
    02:00 -4°C° 0 mm 5 m/s 747 mmHg 71%
    03:00 -5°C° 0 mm 6 m/s 747 mmHg 66%
    04:00 -5°C° 0 mm 6 m/s 747 mmHg 61%
    05:00 -5°C° 0 mm 6 m/s 748 mmHg 58%
    06:00 -5°C° 0 mm 6 m/s 748 mmHg 55%
    07:00 -5°C° 0 mm 6 m/s 748 mmHg 52%
    08:00 -4°C° 0 mm 6 m/s 748 mmHg 47%
    09:00 -3°C° 0 mm 6 m/s 748 mmHg 42%
    10:00 -1°C° 0 mm 5 m/s 748 mmHg 37%
    11:00 0°C° 0 mm 5 m/s 748 mmHg 38%
    12:00 +1°C° 0 mm 5 m/s 748 mmHg 38%
    13:00 +1°C° 0 mm 5 m/s 748 mmHg 39%
    14:00 +1°C° 0.1 mm 5 m/s 747 mmHg 41%
    15:00 +1°C° 0.1 mm 5 m/s 747 mmHg 44%
    16:00 +1°C° 0.1 mm 5 m/s 747 mmHg 46%
    17:00 0°C° 0 mm 4 m/s 747 mmHg 50%
    18:00 0°C° 0 mm 3 m/s 747 mmHg 53%
    19:00 -1°C° 0 mm 2 m/s 748 mmHg 56%
    20:00 -1°C° 0 mm 2 m/s 748 mmHg 58%
    21:00 -2°C° 0 mm 2 m/s 748 mmHg 60%
    22:00 -2°C° 0 mm 2 m/s 748 mmHg 62%
    23:00 -2°C° 0 mm 2 m/s 748 mmHg 63%

    Demain, 31 Mars, Mardi

    Heure Température Précipitation Vent Pression Humidité
    00:00 -2°C° 0 mm 2 m/s 748 mmHg 65%
    01:00 -2°C° 0 mm 2 m/s 748 mmHg 67%
    02:00 0°C° 0 mm 1 m/s 748 mmHg 67%
    03:00 0°C° 0 mm 1 m/s 748 mmHg 68%
    04:00 -1°C° 0 mm 1 m/s 749 mmHg 68%
    05:00 0°C° 0 mm 1 m/s 749 mmHg 65%
    06:00 +1°C° 0 mm 1 m/s 749 mmHg 61%
    07:00 +2°C° 0 mm 1 m/s 750 mmHg 57%
    08:00 +3°C° 0 mm 1 m/s 750 mmHg 52%
    09:00 +4°C° 0 mm 1 m/s 750 mmHg 47%
    10:00 +6°C° 0 mm 1 m/s 750 mmHg 42%
    11:00 +6°C° 0.1 mm 1 m/s 750 mmHg 41%
    12:00 +5°C° 0.1 mm 2 m/s 750 mmHg 40%
    13:00 +6°C° 0.1 mm 2 m/s 750 mmHg 39%
    14:00 +4°C° 0.2 mm 3 m/s 750 mmHg 42%
    15:00 +4°C° 0.2 mm 3 m/s 749 mmHg 45%
    16:00 +4°C° 0.2 mm 4 m/s 749 mmHg 48%
    17:00 +2°C° 0 mm 3 m/s 749 mmHg 52%
    18:00 +2°C° 0 mm 2 m/s 749 mmHg 56%
    19:00 +2°C° 0 mm 1 m/s 750 mmHg 59%
    20:00 -1°C° 0 mm 2 m/s 750 mmHg 63%
    21:00 -1°C° 0 mm 2 m/s 750 mmHg 67%
    22:00 -2°C° 0 mm 2 m/s 750 mmHg 70%
    23:00 -2°C° 0 mm 3 m/s 750 mmHg 74%

    Après-demain, 1 Avril, Mercredi

    Heure Température Précipitation Vent Pression Humidité
    00:00 -2°C° 0 mm 3 m/s 750 mmHg 79%
    01:00 -2°C° 0 mm 3 m/s 750 mmHg 83%
    02:00 -2°C° 0 mm 3 m/s 749 mmHg 83%
    03:00 -2°C° 0 mm 3 m/s 749 mmHg 83%
    04:00 -2°C° 0 mm 3 m/s 749 mmHg 83%
    05:00 -3°C° 0 mm 4 m/s 748 mmHg 76%
    06:00 -2°C° 0 mm 5 m/s 748 mmHg 69%
    07:00 -1°C° 0 mm 5 m/s 748 mmHg 62%
    08:00 -1°C° 0 mm 6 m/s 748 mmHg 56%
    09:00 +1°C° 0 mm 6 m/s 747 mmHg 50%
    10:00 +2°C° 0 mm 6 m/s 747 mmHg 44%
    11:00 +3°C° 0 mm 6 m/s 746 mmHg 43%
    12:00 +4°C° 0 mm 6 m/s 746 mmHg 42%
    13:00 +5°C° 0 mm 7 m/s 746 mmHg 41%
    14:00 +5°C° 0 mm 6 m/s 745 mmHg 43%
    15:00 +4°C° 0 mm 6 m/s 744 mmHg 45%
    16:00 +4°C° 0 mm 6 m/s 744 mmHg 47%
    17:00 +3°C° 0 mm 5 m/s 744 mmHg 53%
    18:00 +3°C° 0 mm 4 m/s 744 mmHg 59%
    19:00 0°C° 0 mm 4 m/s 744 mmHg 65%
    20:00 0°C° 0 mm 4 m/s 744 mmHg 66%
    21:00 0°C° 0 mm 4 m/s 743 mmHg 67%
    22:00 -1°C° 0 mm 4 m/s 743 mmHg 68%
    23:00 -1°C° 0 mm 4 m/s 743 mmHg 69%

    2 Avril, Jeudi

    Heure Température Précipitation Vent Pression Humidité
    00:00 -1°C° 0 mm 4 m/s 742 mmHg 71%
    01:00 -1°C° 0 mm 4 m/s 742 mmHg 73%
    02:00 -1°C° 0 mm 4 m/s 742 mmHg 74%
    03:00 -1°C° 0 mm 5 m/s 742 mmHg 75%
    04:00 -1°C° 0 mm 5 m/s 741 mmHg 76%
    05:00 -1°C° 0 mm 5 m/s 741 mmHg 76%
    06:00 -1°C° 0 mm 6 m/s 741 mmHg 76%
    07:00 +1°C° 0 mm 6 m/s 741 mmHg 76%
    08:00 +2°C° 0 mm 7 m/s 741 mmHg 70%
    09:00 +3°C° 0 mm 7 m/s 741 mmHg 64%
    10:00 +4°C° 0 mm 7 m/s 741 mmHg 58%
    11:00 +4°C° 0 mm 7 m/s 741 mmHg 58%
    12:00 +5°C° 0 mm 7 m/s 741 mmHg 57%
    13:00 +5°C° 0 mm 6 m/s 741 mmHg 57%
    14:00 +5°C° 0 mm 6 m/s 740 mmHg 57%
    15:00 +5°C° 0 mm 6 m/s 740 mmHg 57%
    16:00 +6°C° 0 mm 5 m/s 739 mmHg 58%
    17:00 +5°C° 0 mm 4 m/s 739 mmHg 61%
    18:00 +5°C° 0 mm 3 m/s 739 mmHg 64%
    19:00 +5°C° 0 mm 2 m/s 739 mmHg 67%
    20:00 +3°C° 0 mm 3 m/s 739 mmHg 70%
    21:00 +2°C° 0 mm 3 m/s 739 mmHg 73%
    22:00 +2°C° 0 mm 3 m/s 738 mmHg 76%
    23:00 +2°C° 0 mm 3 m/s 738 mmHg 76%

    3 Avril, Vendredi

    Heure Température Précipitation Vent Pression Humidité
    00:00 +2°C° 0 mm 3 m/s 737 mmHg 76%
    01:00 +1°C° 0 mm 4 m/s 737 mmHg 76%
    02:00 +1°C° 0 mm 4 m/s 737 mmHg 74%
    03:00 +1°C° 0 mm 5 m/s 736 mmHg 72%
    04:00 +1°C° 0 mm 5 m/s 735 mmHg 71%
    05:00 +2°C° 0 mm 6 m/s 736 mmHg 69%
    06:00 +2°C° 0 mm 7 m/s 736 mmHg 67%
    07:00 +3°C° 0 mm 7 m/s 736 mmHg 65%
    08:00 +3°C° 0 mm 7 m/s 736 mmHg 70%
    09:00 +2°C° 0 mm 8 m/s 736 mmHg 75%
    10:00 +2°C° 0 mm 8 m/s 737 mmHg 80%
    11:00 +4°C° 0 mm 8 m/s 737 mmHg 65%
    12:00 +6°C° 0 mm 8 m/s 738 mmHg 50%
    13:00 +7°C° 0 mm 9 m/s 738 mmHg 36%
    14:00 +7°C° 0 mm 9 m/s 738 mmHg 38%
    15:00 +6°C° 0 mm 8 m/s 739 mmHg 40%
    16:00 +6°C° 0 mm 8 m/s 739 mmHg 43%
    17:00 +5°C° 0.1 mm 7 m/s 740 mmHg 49%
    18:00 +3°C° 0.1 mm 6 m/s 740 mmHg 56%
    19:00 +2°C° 0.1 mm 6 m/s 741 mmHg 63%
    20:00 +1°C° 0 mm 5 m/s 742 mmHg 59%
    21:00 +1°C° 0 mm 5 m/s 743 mmHg 55%
    22:00 0°C° 0 mm 5 m/s 744 mmHg 52%
    23:00 -1°C° 0 mm 5 m/s 745 mmHg 54%

    4 Avril, Samedi

    Heure Température Précipitation Vent Pression Humidité
    00:00 -1°C° 0 mm 5 m/s 745 mmHg 56%
    01:00 -2°C° 0 mm 5 m/s 746 mmHg 59%
    02:00 -2°C° 0 mm 5 m/s 747 mmHg 60%
    03:00 -3°C° 0 mm 4 m/s 748 mmHg 61%
    04:00 -3°C° 0 mm 4 m/s 748 mmHg 62%
    05:00 -2°C° 0 mm 4 m/s 749 mmHg 59%
    06:00 -1°C° 0 mm 4 m/s 750 mmHg 55%
    07:00 0°C° 0 mm 4 m/s 751 mmHg 52%
    08:00 +1°C° 0 mm 4 m/s 751 mmHg 49%
    09:00 +3°C° 0 mm 5 m/s 751 mmHg 45%
    10:00 +6°C° 0 mm 5 m/s 751 mmHg 42%
    11:00 +6°C° 0.1 mm 5 m/s 752 mmHg 42%
    12:00 +7°C° 0.1 mm 5 m/s 752 mmHg 43%
    13:00 +7°C° 0.1 mm 5 m/s 752 mmHg 43%
    14:00 +7°C° 0 mm 5 m/s 752 mmHg 43%
    15:00 +7°C° 0 mm 5 m/s 752 mmHg 43%
    16:00 +6°C° 0 mm 5 m/s 752 mmHg 43%
    17:00 +5°C° 0 mm 4 m/s 753 mmHg 48%
    18:00 +4°C° 0 mm 3 m/s 753 mmHg 53%
    19:00 +3°C° 0 mm 2 m/s 754 mmHg 58%
    20:00 +3°C° 0 mm 2 m/s 754 mmHg 62%
    21:00 +3°C° 0 mm 1 m/s 755 mmHg 66%
    22:00 +3°C° 0 mm 1 m/s 756 mmHg 70%
    23:00 +2°C° 0 mm 1 m/s 756 mmHg 72%
    Voir plus